KJ7AZ-3 Weather Reports


time (UTC)temp
F
wind
direction
speed
knots
gust
knots
rain 1hr
in
rain 24hr
in
rain mn
in
humidity
%
barometer
mb
20260506165108 58 242 3.5 5.2 0.00 0.00 0.00
20260506163609 57 218 4.3 2.6 0.00 0.00 0.00
20260506162110 59 285 3.5 6.1 0.00 0.00 0.00
20260506160611 57 278 4.3 5.2 0.00 0.00 0.00
20260506155112 57 287 3.5 2.6 0.00 0.00 0.00
20260506153614 54 243 1.7 1.7 0.00 0.00 0.00
20260506152115 55 287 4.3 4.3 0.00 0.00 0.00
20260506150616 55 323 4.3 2.6 0.00 0.00 0.00
20260506145117 57 312 0.0 0.9 0.00 0.00 0.00
20260506143618 57 174 0.0 0.0 0.00 0.00 0.00
20260506142120 54 174 0.0 0.0 0.00 0.00 0.00
20260506140621 48 174 0.0 0.0 0.00 0.00 0.00
20260506135123 41 174 0.0 0.0 0.00 0.00 0.00
20260506133624 40 174 0.0 0.0 0.00 0.00 0.00
20260506130626 40 174 0.0 0.0 0.00 0.00 0.00
20260506125128 41 174 0.0 0.0 0.00 0.00 0.00
20260506123629 42 174 0.0 0.0 0.00 0.00 0.00
20260506122131 39 174 0.0 0.0 0.00 0.00 0.00
20260506120632 38 174 0.0 0.0 0.00 0.00 0.00
20260506115133 39 174 0.0 0.0 0.00 0.00 0.00
20260506113634 39 174 0.0 0.0 0.00 0.00 0.00
20260506112135 38 174 0.0 0.0 0.00 0.00 0.00
20260506105137 40 174 0.0 0.0 0.00 0.00 0.00
20260506102140 41 174 0.0 0.0 0.00 0.00 0.00
20260506100641 39 174 0.0 0.0 0.00 0.00 0.00
20260506095142 41 174 0.0 0.0 0.00 0.00 0.00
20260506093643 43 174 0.0 0.0 0.00 0.00 0.00
20260506092145 45 174 0.0 0.0 0.00 0.00 0.00
20260506090646 47 174 0.0 0.0 0.00 0.00 0.00
20260506085147 47 174 0.0 0.0 0.00 0.00 0.00
20260506083648 48 215 0.0 0.0 0.00 0.00 0.00
20260506082149 48 193 0.0 0.0 0.00 0.00 0.00
20260506080650 48 193 0.0 0.0 0.00 0.00 0.00
20260506072153 49 193 0.0 0.0 0.00 0.00 0.00
20260506070655 49 198 0.9 0.0 0.00 0.00 0.00
20260506062158 50 169 1.7 1.7 0.00 0.00 0.00
20260506060700 50 184 3.5 1.7 0.00 0.00 0.00
20260506050705 50 179 0.0 0.0 0.00 0.00 0.00
20260506043708 51 207 0.9 0.0 0.00 0.00 0.00
20260506042208 50 193 0.0 0.0 0.00 0.00 0.00
20260506040709 51 193 0.0 0.0 0.00 0.00 0.00
20260506035211 49 166 0.0 0.0 0.00 0.00 0.00
20260506033712 49 203 0.9 0.0 0.00 0.00 0.00
20260506032213 50 193 0.0 0.0 0.00 0.00 0.00
20260506030714 52 257 0.9 0.0 0.00 0.00 0.00
20260506023716 54 214 0.0 0.0 0.00 0.00 0.00
20260506022217 54 224 1.7 0.9 0.00 0.00 0.00
20260506020718 53 214 1.7 1.7 0.00 0.00 0.00
20260506015219 53 249 4.3 3.5 0.00 0.00 0.00
20260506013720 52 252 2.6 3.5 0.00 0.00 0.00
20260506005222 65 167 4.3 2.6 0.00 0.00 0.00
20260506002224 63 262 12.2 13.9 0.00 0.00 0.00
20260506000725 64 252 7.0 9.6 0.00 0.00 0.00
20260505235226 66 280 7.8 9.6 0.00 0.00 0.00
20260505233726 66 240 11.3 12.2 0.00 0.00 0.00
20260505232227 69 311 8.7 6.1 0.00 0.00 0.00
20260505230728 69 271 8.7 12.2 0.00 0.00 0.00
20260505225228 70 262 9.6 7.8 0.00 0.00 0.00
20260505223729 70 240 7.8 13.0 0.00 0.00 0.00
20260505222230 69 183 12.2 10.4 0.00 0.00 0.00
20260505220730 70 280 9.6 9.6 0.00 0.00 0.00
20260505205234 69 278 9.6 13.9 0.00 0.00 0.00
20260505203735 68 249 7.8 8.7 0.00 0.00 0.00
20260505202236 66 243 6.1 8.7 0.00 0.00 0.00
20260505192240 64 255 7.8 12.2 0.00 0.00 0.00
20260505185242 63 321 6.1 3.5 0.00 0.00 0.00
20260505183742 62 280 7.0 6.1 0.00 0.00 0.00
20260505180744 60 290 4.3 0.9 0.00 0.00 0.00
20260505175245 60 305 3.5 0.9 0.00 0.00 0.00
20260505173746 57 271 5.2 5.2 0.00 0.00 0.00
20260505170748 54 222 3.5 1.7 0.00 0.00 0.00